| time (UTC) | temp F | wind direction | speed MPH | gust MPH | rain 1hr in | rain 24hr in | rain mn in | humidity % | barometer mb |
| 20260831223027 | 76 | 112 | 3.0 | 7.0 | 0.00 | 0.25 | 0.25 | 70 | 1006.4 |
| 20260831221529 | 76 | 115 | 0.0 | 2.0 | 0.00 | 0.25 | 0.25 | 77 | 1006.6 |
| 20260831220025 | 74 | 104 | 0.0 | 2.0 | 0.01 | 0.25 | 0.25 | 82 | 1007.0 |
| 20260831214532 | 72 | 96 | 0.0 | 2.0 | 0.02 | 0.25 | 0.25 | 85 | 1007.3 |
| 20260831213024 | 70 | 238 | 1.0 | 6.0 | 0.04 | 0.25 | 0.25 | 86 | 1007.9 |
| 20260831211523 | 70 | 330 | 1.0 | 3.0 | 0.07 | 0.25 | 0.25 | 83 | 1007.6 |
| 20260831210022 | 71 | 109 | 0.0 | 2.0 | 0.10 | 0.24 | 0.24 | 89 | 1008.8 |
| 20260831204522 | 70 | 100 | 3.0 | 6.0 | 0.14 | 0.23 | 0.23 | 90 | 1009.4 |
| 20260831203032 | 69 | 115 | 1.0 | 6.0 | 0.13 | 0.21 | 0.21 | 91 | 1010.3 |
| 20260831201521 | 69 | 110 | 3.0 | 7.0 | 0.10 | 0.18 | 0.18 | 90 | 1010.5 |
| 20260831200022 | 70 | 98 | 1.0 | 2.0 | 0.06 | 0.13 | 0.13 | 89 | 1011.1 |
| 20260831194519 | 70 | 108 | 0.0 | 4.0 | 0.07 | 0.09 | 0.09 | 87 | 1011.4 |
| 20260831193019 | 71 | 108 | 1.0 | 3.0 | 0.06 | 0.08 | 0.08 | 87 | 1011.3 |
| 20260831191534 | 71 | 302 | 0.0 | 1.0 | 0.06 | 0.08 | 0.08 | 87 | 1010.9 |
| 20260831190014 | 72 | 99 | 0.0 | 3.0 | 0.05 | 0.07 | 0.07 | 83 | 1010.9 |
| 20260831184514 | 72 | 314 | 0.0 | 6.0 | 0.00 | 0.02 | 0.02 | 79 | 1010.7 |
| 20260831183025 | 74 | 323 | 3.0 | 12.0 | 0.00 | 0.02 | 0.02 | 71 | 1010.6 |
| 20260831181508 | 77 | 119 | 4.0 | 8.0 | 0.00 | 0.02 | 0.02 | 64 | 1009.4 |
| 20260831180009 | 77 | 341 | 0.0 | 4.0 | 0.00 | 0.02 | 0.02 | 64 | 1009.2 |
| 20260831174507 | 76 | 281 | 3.0 | 11.0 | 0.00 | 0.02 | 0.02 | 66 | 1009.2 |
| 20260831173006 | 75 | 341 | 2.0 | 7.0 | 0.00 | 0.02 | 0.02 | 69 | 1009.1 |
| 20260831171504 | 76 | 307 | 3.0 | 9.0 | 0.00 | 0.02 | 0.02 | 66 | 1009.0 |
| 20260831170004 | 76 | 290 | 4.0 | 13.0 | 0.00 | 0.02 | 0.02 | 69 | 1008.9 |
| 20260831164503 | 76 | 303 | 4.0 | 10.0 | 0.00 | 0.02 | 0.02 | 72 | 1008.8 |
| 20260831163059 | 77 | 316 | 5.0 | 13.0 | 0.00 | 0.02 | 0.02 | 71 | 1008.4 |
| 20260831161555 | 77 | 329 | 5.0 | 11.0 | 0.00 | 0.02 | 0.02 | 70 | 1007.8 |
| 20260831160053 | 77 | 311 | 5.0 | 11.0 | 0.00 | 0.02 | 0.02 | 70 | 1007.6 |
| 20260831154616 | 77 | 327 | 5.0 | 8.0 | 0.00 | 0.02 | 0.02 | 73 | 1007.3 |
| 20260831153052 | 76 | 346 | 3.0 | 8.0 | 0.00 | 0.02 | 0.02 | 77 | 1007.5 |
| 20260831151607 | 75 | 319 | 5.0 | 10.0 | 0.00 | 0.02 | 0.02 | 79 | 1007.5 |
| 20260831150050 | 73 | 330 | 3.0 | 6.0 | 0.00 | 0.02 | 0.02 | 82 | 1007.2 |
| 20260831144549 | 73 | 321 | 2.0 | 4.0 | 0.00 | 0.02 | 0.02 | 85 | 1007.0 |
| 20260831143051 | 72 | 306 | 1.0 | 2.0 | 0.00 | 0.02 | 0.02 | 87 | 1006.9 |
| 20260831141548 | 71 | 96 | 0.0 | 5.0 | 0.00 | 0.02 | 0.02 | 87 | 1006.8 |
| 20260831140047 | 70 | 110 | 0.0 | 1.0 | 0.00 | 0.02 | 0.02 | 88 | 1006.9 |
| 20260831134555 | 70 | 110 | 0.0 | 3.0 | 0.00 | 0.02 | 0.02 | 88 | 1006.9 |
| 20260831133046 | 70 | 101 | 3.0 | 6.0 | 0.01 | 0.02 | 0.02 | 88 | 1006.8 |
| 20260831131547 | 70 | 101 | 2.0 | 7.0 | 0.02 | 0.02 | 0.02 | 88 | 1006.9 |
| 20260831130052 | 70 | 116 | 4.0 | 7.0 | 0.02 | 0.02 | 0.02 | 87 | 1007.1 |
| 20260831124548 | 70 | 134 | 3.0 | 7.0 | 0.02 | 0.02 | 0.02 | 86 | 1007.4 |
| 20260831123037 | 72 | 311 | 3.0 | 8.0 | 0.00 | 0.00 | 0.00 | 80 | 1007.1 |
| 20260831121544 | 72 | 302 | 2.0 | 8.0 | 0.00 | 0.00 | 0.00 | 79 | 1007.1 |
| 20260831120037 | 73 | 302 | 2.0 | 12.0 | 0.00 | 0.00 | 0.00 | 75 | 1006.7 |
| 20260831114532 | 75 | 291 | 4.0 | 13.0 | 0.00 | 0.00 | 0.00 | 70 | 1006.5 |
| 20260831113026 | 78 | 320 | 6.0 | 13.0 | 0.00 | 0.00 | 0.00 | 61 | 1006.0 |
| 20260831111522 | 79 | 307 | 1.0 | 2.0 | 0.00 | 0.00 | 0.00 | 58 | 1005.2 |
| 20260831110023 | 79 | 280 | 0.0 | 1.0 | 0.00 | 0.00 | 0.00 | 58 | 1005.1 |
| 20260831104519 | 78 | 280 | 0.0 | 0.0 | 0.00 | 0.00 | 0.00 | 60 | 1004.5 |
| 20260831103027 | 79 | 280 | 0.0 | 0.0 | 0.00 | 0.00 | 0.00 | 59 | 1004.4 |
| 20260831101524 | 79 | 280 | 0.0 | 1.0 | 0.00 | 0.00 | 0.00 | 57 | 1004.4 |
| 20260831100018 | 78 | 280 | 0.0 | 0.0 | 0.00 | 0.00 | 0.00 | 61 | 1004.4 |
| 20260831094516 | 79 | 280 | 0.0 | 0.0 | 0.00 | 0.00 | 0.00 | 60 | 1004.2 |
| 20260831093032 | 80 | 280 | 0.0 | 0.0 | 0.00 | 0.00 | 0.00 | 55 | 1004.4 |
| 20260831091514 | 79 | 280 | 0.0 | 0.0 | 0.00 | 0.00 | 0.00 | 56 | 1004.2 |
| 20260831090013 | 78 | 280 | 0.0 | 0.0 | 0.00 | 0.00 | 0.00 | 60 | 1004.2 |
| 20260831084512 | 79 | 280 | 0.0 | 0.0 | 0.00 | 0.00 | 0.00 | 57 | 1004.3 |
| 20260831083010 | 80 | 280 | 0.0 | 0.0 | 0.00 | 0.00 | 0.00 | 54 | 1004.4 |
| 20260831081506 | 80 | 280 | 0.0 | 0.0 | 0.00 | 0.00 | 0.00 | 58 | 1004.4 |
| 20260831080004 | 80 | 280 | 0.0 | 0.0 | 0.00 | 0.00 | 0.00 | 56 | 1004.5 |
| 20260831074601 | 82 | 280 | 0.0 | 0.0 | 0.00 | 0.00 | 0.00 | 53 | 1004.8 |
| 20260831073103 | 82 | 280 | 0.0 | 0.0 | 0.00 | 0.00 | 0.00 | 54 | 1004.5 |
| 20260831071611 | 84 | 280 | 0.0 | 0.0 | 0.00 | 0.00 | 0.00 | 47 | 1004.7 |
| 20260831070053 | 84 | 280 | 0.0 | 0.0 | 0.00 | 0.00 | 0.00 | 47 | 1004.8 |
| 20260831064553 | 85 | 280 | 0.0 | 1.0 | 0.00 | 0.00 | 0.00 | 47 | 1004.7 |
| 20260831063054 | 84 | 282 | 0.0 | 0.0 | 0.00 | 0.00 | 0.00 | 49 | 1004.8 |
| 20260831061552 | 84 | 282 | 0.0 | 0.0 | 0.00 | 0.00 | 0.00 | 48 | 1004.8 |
| 20260831054551 | 85 | 269 | 0.0 | 4.0 | 0.00 | 0.00 | 0.00 | 46 | 1004.6 |
| 20260831053053 | 86 | 319 | 2.0 | 6.0 | 0.00 | 0.00 | 0.00 | 45 | 1004.6 |
| 20260831051549 | 86 | 319 | 1.0 | 9.0 | 0.00 | 0.00 | 0.00 | 44 | 1004.2 |
| 20260831050049 | 87 | 330 | 6.0 | 14.0 | 0.00 | 0.00 | 0.00 | 44 | 1004.0 |
| 20260831044550 | 87 | 333 | 7.0 | 15.0 | 0.00 | 0.00 | 0.00 | 43 | 1004.1 |
| 20260831043048 | 87 | 297 | 4.0 | 12.0 | 0.00 | 0.00 | 0.00 | 42 | 1004.1 |
| 20260831041547 | 87 | 315 | 4.0 | 16.0 | 0.00 | 0.00 | 0.00 | 41 | 1004.0 |
| 20260831040047 | 88 | 280 | 6.0 | 13.0 | 0.00 | 0.00 | 0.00 | 41 | 1003.8 |
| 20260831034545 | 88 | 288 | 8.0 | 13.0 | 0.00 | 0.00 | 0.00 | 39 | 1003.7 |
| 20260831033051 | 89 | 318 | 9.0 | 15.0 | 0.00 | 0.00 | 0.00 | 38 | 1003.3 |
| 20260831031544 | 89 | 316 | 8.0 | 16.0 | 0.00 | 0.00 | 0.00 | 38 | 1002.9 |
| 20260831030043 | 92 | 321 | 7.0 | 11.0 | 0.00 | 0.00 | 0.00 | 36 | 1002.6 |
| 20260831024543 | 92 | 328 | 5.0 | 7.0 | 0.00 | 0.00 | 0.00 | 34 | 1002.3 |
| 20260831023043 | 92 | 319 | 4.0 | 8.0 | 0.00 | 0.00 | 0.00 | 33 | 1002.0 |
| 20260831021542 | 92 | 319 | 3.0 | 8.0 | 0.00 | 0.00 | 0.00 | 33 | 1001.6 |
| 20260831014539 | 93 | 316 | 3.0 | 5.0 | 0.00 | 0.00 | 0.00 | 33 | 1001.5 |
| 20260831013039 | 94 | 298 | 3.0 | 7.0 | 0.00 | 0.00 | 0.00 | 32 | 1001.4 |
| 20260831011539 | 94 | 319 | 2.0 | 6.0 | 0.00 | 0.00 | 0.00 | 31 | 1001.3 |
| 20260831010037 | 95 | 312 | 2.0 | 5.0 | 0.00 | 0.00 | 0.00 | 31 | 1001.2 |
| 20260831004545 | 97 | 300 | 2.0 | 7.0 | 0.00 | 0.00 | 0.00 | 29 | 1001.2 |
| 20260831003036 | 99 | 205 | 0.0 | 8.0 | 0.00 | 0.00 | 0.00 | 29 | 1001.3 |
| 20260831001535 | 99 | 265 | 2.0 | 8.0 | 0.00 | 0.00 | 0.00 | 28 | 1001.4 |
| 20260831000035 | 99 | 340 | 4.0 | 7.0 | 0.00 | 0.00 | 0.00 | 28 | 1001.4 |
| 20260830234542 | 99 | 304 | 1.0 | 6.0 | 0.00 | 0.00 | 0.00 | 29 | 1001.3 |
| 20260830233031 | 99 | 317 | 1.0 | 5.0 | 0.00 | 0.00 | 0.00 | 28 | 1001.4 |
| 20260830231529 | 99 | 133 | 1.0 | 6.0 | 0.00 | 0.00 | 0.00 | 28 | 1001.6 |
| 20260830230026 | 98 | 325 | 4.0 | 10.0 | 0.00 | 0.00 | 0.00 | 29 | 1002.0 |
| 20260830224524 | 99 | 330 | 4.0 | 7.0 | 0.00 | 0.00 | 0.00 | 29 | 1002.2 |